This is the latest recevied weather packets stored in our database for station/object K1RFS. If no packets are shown the sender has not sent any weather packets the latest 10 day(s).
| Time | Temp. | Humidity | Pressure | Rain* | Wind** | Luminosity | Snow |
|---|---|---|---|---|---|---|---|
| 1787473633 | 20° C | 68% | 1008.2 hPa | 0 mm | - | 0 W/m² | - |
| 1787473328 | 20° C | 65% | 1008.2 hPa | 0 mm | - | 0 W/m² | - |
| 1787473023 | 20° C | 65% | 1008.1 hPa | 0 mm | - | 0 W/m² | - |
| 1787472720 | 20° C | 64% | 1007.9 hPa | 0 mm | - | 0 W/m² | - |
| 1787472415 | 20° C | 65% | 1008 hPa | 0 mm | - | 0 W/m² | - |
| 1787472110 | 20.56° C | 64% | 1007.9 hPa | 0 mm | - | 0 W/m² | - |
| 1787471806 | 20° C | 65% | 1008.1 hPa | 1.27 mm | - | 0 W/m² | - |
| 1787471502 | 20.56° C | 68% | 1008 hPa | 1.27 mm | - | 0 W/m² | - |
| 1787471197 | 21.11° C | 65% | 1008.1 hPa | 0 mm | - | 0 W/m² | - |
| 1787470894 | 21.67° C | 62% | 1008.1 hPa | 0 mm | - | 0 W/m² | - |
| 1787470590 | 22.22° C | 58% | 1008.5 hPa | 0 mm | - | 0 W/m² | - |
| 1787470286 | 22.22° C | 57% | 1008.5 hPa | 0 mm | - | 0 W/m² | - |
| 1787469982 | 22.22° C | 57% | 1008.2 hPa | 0 mm | - | 0 W/m² | - |
| 1787469678 | 21.67° C | 58% | 1007.7 hPa | 0 mm | - | 0 W/m² | - |
| 1787469378 | 21.67° C | 58% | 1007.8 hPa | 0 mm | - | 0 W/m² | - |
| 1787469074 | 21.67° C | 58% | 1007.6 hPa | 0 mm | - | 0 W/m² | - |
| 1787468770 | 21.67° C | 57% | 1007.4 hPa | 0 mm | - | 0 W/m² | - |
| 1787468466 | 21.67° C | 58% | 1007.3 hPa | 0 mm | - | 0 W/m² | - |
| 1787468166 | 21.67° C | 59% | 1007.6 hPa | 0 mm | - | 0 W/m² | - |
| 1787467862 | 21.67° C | 60% | 1007.6 hPa | 0 mm | - | 0 W/m² | - |
| 1787467557 | 21.11° C | 59% | 1007.4 hPa | 0 mm | - | 0 W/m² | - |
| 1787467253 | 21.11° C | 62% | 1007.7 hPa | 0 mm | - | 0 W/m² | - |
| 1787466949 | 20.56° C | 64% | 1007.9 hPa | 0 mm | - | 0 W/m² | - |
| 1787466644 | 20.56° C | 65% | 1007.7 hPa | 0 mm | - | 0 W/m² | - |
| 1787466339 | 20.56° C | 64% | 1007.7 hPa | 0 mm | - | 0 W/m² | - |
* Rain latest hour (hover to see other rain measurements)
** Current wind speed in m/s (hover to see current wind gust speed)